This demonstration page uses our WeatherBlox Daily Observations layout. Learn more.

Left ArrowRight Arrow

38.89511, -77.03637

Hourly Observations for July 4, 2016

Temp ( °F °C ) Dew Point ( °F °C ) Humidity (%) Winds ( mph kmh ) Pressure ( in mb ) Visibility ( mi km ) Precip ( " mm )
12:52 am 00:52 Mostly Cloudy 69 20.6 65 18.3 87 87 WSW 3 6 30.11 1020 10 16 0.00 0.00
1:52 am 01:52 Cloudy 69 20.6 65 18.3 87 87 WSW 5 7 30.11 1020 10 16 0.00 0.00
2:52 am 02:52 Cloudy 69 20.6 65 18.3 87 87 SW 6 9 30.09 1019 10 16 0.00 0.03
3:52 am 03:52 Cloudy with Light Rain 69 20.6 65 18.3 87 87 SW 5 7 30.09 1019 10 16 0.00 0.03
4:52 am 04:52 Cloudy with Light Rain 68 20 66 18.9 93 93 S 5 7 30.09 1019 10 16 0.00 0.03
5:52 am 05:52 Cloudy 68 20 65 18.3 90 90 SSW 7 11 30.10 1019 10 16 0.00 0.03
6:21 am 06:21 Cloudy 69 20.6 66 18.9 90 90 S 6 9 30.12 1020 10 16 0.00 0.00
6:37 am 06:37 Cloudy 69 20.6 66 18.9 90 90 S 5 7 30.12 1020 10 16 0.00 0.00
6:52 am 06:52 Cloudy 69 20.6 66 18.9 90 90 SSE 7 11 30.10 1019 10 16 0.00 0.00
7:23 am 07:23 Cloudy 70 21.1 66 18.9 87 87 S 9 15 30.12 1020 10 16 0.00 0.00
7:52 am 07:52 Cloudy 70 21.1 66 18.9 87 87 SSE 9 15 30.10 1019 10 16 0.00 0.00
8:04 am 08:04 Cloudy 70 21 66 19 88 88 SSE 8 13 30.09 1019 10 16 0.00 0.00
8:12 am 08:12 Cloudy 70 21 66 19 88 88 S 9 15 30.12 1020 10 16 0.00 0.00
8:52 am 08:52 Cloudy 70 21.1 66 18.9 87 87 SSE 12 19 30.10 1019 10 16 0.00 0.00
9:17 am 09:17 Cloudy 70 21.1 66 18.9 87 87 S 9 15 30.09 1019 10 16 0.00 0.00
9:52 am 09:52 Cloudy 70 21.1 66 18.9 87 87 SSE 8 13 30.10 1019 10 16 0.00 0.00
10:52 am 10:52 Cloudy 71 21.7 66 18.9 84 84 SSE 9 15 30.09 1019 10 16 0.00 0.00
11:52 am 11:52 Cloudy 71 21.7 66 18.9 84 84 S 9 15 30.09 1019 10 16 0.00 0.00
12:52 pm 12:52 Cloudy 72 22.2 67 19.4 84 84 S 7 11 30.08 1019 10 16 0.00 0.00
1:10 pm 13:10 Cloudy with Light Rain 72 22.2 67 19.4 84 84 S 7 11 30.09 1019 10 16 0.00 0.03
1:52 pm 13:52 Cloudy with Light Rain 72 22.2 68 20 87 87 SSE 8 13 30.06 1018 7 11 0.01 0.25
2:45 pm 14:45 Cloudy with Rain 72 22.2 69 20.6 91 91 SSE 10 17 30.03 1017 5 8 0.04 1.02
2:50 pm 14:50 Cloudy with Heavy Rain 72 22 70 21 94 94 SSE 10 17 30.03 1017 3 4 0.00 0.00
2:52 pm 14:52 Cloudy with Heavy Rain 72 22.2 69 20.6 91 91 SSE 10 17 30.03 1017 3 4 0.09 2.29
2:57 pm 14:57 Cloudy with Rain 72 22.2 69 20.6 91 91 SSE 9 15 30.03 1017 3 5 0.01 0.25
3:00 pm 15:00 Cloudy with Rain 72 22 70 21 94 94 SSE 9 15 30.03 1017 4 6 0.00 0.00
3:14 pm 15:14 Cloudy with Light Rain 72 22.2 70 21.1 94 94 SSE 10 17 30.03 1017 10 16 0.02 0.51
3:21 pm 15:21 Cloudy with Light Rain 73 23 70 21 89 89 SSE 13 20 30.03 1017 10 16 0.00 0.00
3:29 pm 15:29 Cloudy with Light Rain 73 22.8 70 21.1 90 90 SSE 10 17 30.00 1016 9 14 0.02 0.51
3:52 pm 15:52 Cloudy with Heavy Rain 72 22.2 70 21.1 94 94 S 13 20 30.01 1016 3 4 0.06 1.52
4:07 pm 16:07 Cloudy with Rain 72 22.2 70 21.1 94 94 S 13 20 30.00 1016 3 5 0.07 1.78
4:14 pm 16:14 Cloudy with Light Rain 72 22 70 21 94 94 S 13 20 30.00 1016 8 13 0.00 0.00
4:29 pm 16:29 Cloudy with Light Rain 73 22.8 70 21.1 90 90 S 13 20 30.00 1016 10 16 0.08 2.03
4:43 pm 16:43 Cloudy with Light Rain 73 22.8 70 21.1 90 90 S 13 20 30.00 1016 10 16 0.09 2.29
4:47 pm 16:47 Cloudy with Light Rain 73 23 70 21 89 89 S 13 20 29.97 1015 10 16 0.09 2.29
4:50 pm 16:50 Cloudy with Light Rain 73 23 70 21 89 89 S 14 22 29.97 1015 9 14 0.09 2.29
4:52 pm 16:52 Cloudy with Light Rain 73 22.8 70 21.1 90 90 S 12 19 29.98 1015 9 14 0.09 2.29
5:23 pm 17:23 Cloudy 73 22.8 70 21.1 90 90 S 13 20 29.97 1015 10 16 0.00 0.03
5:42 pm 17:42 Cloudy with Light Rain 73 23 72 22 94 94 S 12 19 29.97 1015 10 16 0.00 0.00
5:52 pm 17:52 Cloudy 73 22.8 71 21.7 94 94 S 13 20 29.97 1015 10 16 0.00 0.03
6:43 pm 18:43 Cloudy with Light Rain 73 22.8 71 21.7 94 94 S 12 19 29.97 1015 10 16 0.00 0.03
6:52 pm 18:52 Cloudy with Light Rain 73 22.8 71 21.7 94 94 S 12 19 29.96 1015 10 16 0.00 0.03
6:59 pm 18:59 Cloudy with Light Rain 73 22.8 71 21.7 94 94 S 12 19 29.97 1015 9 14 0.01 0.25
7:28 pm 19:28 Cloudy with Light Rain 73 22.8 71 21.7 94 94 S 13 20 29.97 1015 5 8 0.02 0.51
7:52 pm 19:52 Cloudy with Light Rain 73 22.8 71 21.7 94 94 S 13 20 29.94 1014 6 10 0.05 1.27
8:05 pm 20:05 Cloudy with Light Rain 74 23.3 72 22.2 94 94 SSW 15 24 29.94 1014 10 16 0.00 0.03
8:09 pm 20:09 Cloudy with Light Rain 74 23.3 71 21.7 91 91 SSW 14 22 29.94 1014 10 16 0.00 0.03
8:20 pm 20:20 Cloudy 73 23 72 22 94 94 S 15 24 29.94 1014 10 16 0.00 0.00
8:52 pm 20:52 Cloudy with Mist and Fog 73 22.8 72 22.2 96 96 S 13 20 29.93 1013 6 10 0.00 0.03
9:06 pm 21:06 Cloudy with Drizzle 73 23 72 22 94 94 SSW 12 19 29.94 1014 4 6 0.00 0.00
9:36 pm 21:36 Cloudy with Drizzle 73 23 72 22 94 94 SSW 9 15 29.94 1014 3 4 0.00 0.00
9:52 pm 21:52 Cloudy with Drizzle 74 23.3 72 22.2 94 94 SSW 12 19 29.94 1014 3 4 0.00 0.03
10:17 pm 22:17 Cloudy with Drizzle 74 23.3 72 22.2 94 94 S 10 17 29.94 1014 3 5 0.00 0.03
10:24 pm 22:24 Cloudy with Drizzle 73 23 73 23 100 100 SSW 9 15 29.94 1014 3 4 0.00 0.00
10:45 pm 22:45 Cloudy with Drizzle 74 23.3 73 22.8 97 97 SW 7 11 29.91 1013 2 2 0.01 0.25
10:52 pm 22:52 Cloudy with Drizzle 74 23.3 73 22.8 97 97 SW 10 17 29.92 1013 2 3 0.01 0.25
10:59 pm 22:59 Cloudy with Drizzle 74 23.3 73 22.8 97 97 SW 12 19 29.91 1013 3 5 0.00 0.03
11:49 pm 23:49 Cloudy 73 23 72 22 94 94 SSW 14 22 29.91 1013 8 13 0.00 0.03
11:52 pm 23:52 Cloudy 74 23.3 72 22.2 94 94 SSW 13 20 29.89 1012 9 14 0.00 0.03

Powered by AerisWeather